Theta_e
312 316 318 318 316 314 312 313 311 308 305 301 301 299 299 299 300 300 302 302 302 302 302 301 301 303 304 304 306 304 303 301 301 301 300 301 300 299 299 299 298 299 300
312 314 315 312 311 309 309 308 308 305 306 303 301 301 300 299 300 301 301 302 302 303 302 301 300 302 303 303 305 305 302 303 304 301 300 297 300 300 299 298 300 299 300
310 310 309 309 311 311 311 311 308 304 302 302 301 300 300 299 299 299 300 301 302 302 302 301 300 301 303 304 305 305 304 301 303 303 302 297 297 299 300 297 297 297 296
310 310 310 310 312 312 314 314 312 306 303 302 301 300 299 299 299 300 299 300 301 301 302 302 301 300 301 302 303 305 303 304 303 297 299 298 300 298 295 298 296 296 296
311 311 312 313 313 314 314 313 310 307 304 303 303 302 300 301 299 299 299 299 299 301 301 301 300 299 299 299 300 300 300 303 304 300 295 293 293 295 296 292 294 294 294
308 312 314 313 312 314 312 311 311 311 306 303 303 301 300 300 299 298 297 297 298 299 299 300 299 299 300 298 299 299 299 301 302 298 297 295 294 292 291 290 290 291 288
309 311 312 313 314 311 312 311 309 308 310 308 304 303 301 300 300 299 299 298 298 298 300 299 298 298 299 299 298 297 298 299 299 298 297 295 294 293 291 291 287 289 284
297 306 311 314 314 314 314 314 312 311 309 307 308 307 306 303 303 301 301 300 300 301 300 299 299 298 298 298 298 297 297 297 296 296 295 294 293 292 292 292 288 284 283
289 292 295 305 313 315 314 315 313 311 309 309 308 307 309 308 306 306 304 303 302 301 300 300 299 299 299 298 298 296 295 295 294 293 293 292 290 290 290 290 289 290 284
288 290 290 292 298 305 309 312 314 315 312 310 309 309 309 308 307 306 304 304 304 302 300 300 299 298 298 297 296 295 294 294 292 291 289 288 287 287 288 288 287 286 285
287 288 289 293 296 298 299 303 306 308 310 312 310 306 306 306 307 307 307 306 306 304 302 301 299 298 296 296 295 294 292 292 289 288 287 287 287 287 288 288 288 287 287
287 288 288 289 291 293 295 297 300 301 302 304 307 310 309 307 306 305 306 307 305 305 303 302 300 298 297 296 295 293 292 290 288 287 287 287 289 287 288 288 287 287 286
288 289 290 290 291 292 294 296 298 299 300 301 301 302 305 304 304 306 307 308 307 306 303 302 300 299 297 296 296 294 290 289 289 288 288 288 288 287 287 286 285 285 285
287 288 289 289 290 291 292 294 296 298 299 299 299 300 302 306 306 306 306 307 306 304 302 301 301 300 298 297 295 292 290 290 290 290 290 289 288 286 286 285 285 285 283
284 286 286 288 289 290 291 292 293 295 297 297 297 298 300 302 305 304 307 307 306 304 303 301 300 299 297 295 293 292 291 290 290 290 289 289 289 289 288 286 284 284 283
282 284 285 286 288 288 289 290 291 292 295 295 296 296 297 298 299 301 302 303 304 303 302 300 299 296 296 297 296 294 291 291 290 287 288 288 290 290 291 290 289 286 283
281 281 282 283 284 285 287 288 290 291 292 293 295 295 295 296 296 298 299 301 300 300 299 299 297 295 295 298 298 296 292 291 289 288 287 287 288 288 288 290 290 289 290
279 280 281 282 283 284 285 287 288 289 290 291 292 293 294 294 295 295 298 300 300 298 297 297 296 295 295 298 299 297 292 290 289 288 287 287 286 287 287 287 287 286 287
279 280 281 281 282 283 284 285 286 287 289 289 290 292 293 293 294 296 297 298 296 296 296 296 295 294 294 298 298 296 290 288 287 287 287 286 286 289 290 285 283 282 283
279 279 280 281 281 282 284 283 283 284 286 288 290 292 292 292 292 294 296 295 294 294 293 292 294 295 294 298 299 293 290 287 286 286 286 289 286 289 291 283 283 281 281
278 279 279 280 280 281 282 281 282 282 285 287 287 290 291 291 292 292 295 292 291 289 289 289 289 291 294 296 298 294 289 287 285 285 284 286 289 290 291 288 283 283 283
277 278 278 278 279 280 280 279 279 282 284 285 286 288 290 291 291 289 291 290 289 288 287 287 287 290 293 296 296 294 292 290 286 284 284 286 290 290 290 288 288 288 286
276 279 277 277 278 279 279 279 281 283 284 284 284 285 288 290 289 287 289 287 287 287 286 285 286 286 290 293 294 294 292 290 285 284 286 288 289 290 289 288 288 287 279
276 277 276 276 276 277 278 279 281 282 283 283 283 284 287 288 288 287 288 287 286 286 285 285 285 285 286 288 289 288 289 289 285 286 286 288 288 286 284 285 284 279 278
275 276 276 275 275 277 278 279 281 282 281 282 283 283 286 288 288 287 287 287 288 288 286 285 286 284 284 286 288 287 285 284 285 285 285 283 282 280 279 278 278 278 278
274 275 275 275 275 277 277 279 281 281 281 280 282 284 286 287 287 287 286 290 290 291 291 290 287 287 289 290 290 289 288 287 288 283 281 280 280 279 278 277 276 276 277
Wind_Speed
4 5 7 10 8 8 1 5 8 8 7 3 4 2 2 2 2 4 6 7 6 7 7 5 5 5 5 5 6 4 6 3 3 5 3 3 1 2 1 0 1 1 2
4 4 6 8 10 9 6 4 5 7 7 5 4 4 4 3 2 3 4 5 7 7 7 7 7 7 5 6 7 6 4 3 6 4 3 2 1 2 3 3 4 5 4
8 4 8 9 10 10 5 3 4 4 5 5 4 3 3 2 2 3 3 5 7 7 7 7 7 8 6 8 9 8 7 4 6 6 5 3 5 3 2 4 3 5 3
8 5 5 7 10 11 7 9 7 4 4 7 4 6 5 5 4 4 3 4 6 6 6 7 6 6 5 6 8 6 4 5 10 1 1 3 4 4 2 0 2 2 3
11 9 7 8 6 11 10 7 6 3 5 6 8 6 4 3 2 2 5 6 5 6 6 7 7 6 5 5 7 6 5 5 7 4 3 1 2 1 3 3 3 1 1
1 6 6 4 4 2 4 4 4 7 4 6 7 8 7 5 4 3 3 4 3 4 6 7 7 7 8 8 8 8 8 8 5 5 5 5 5 4 4 3 2 3 1
4 3 3 4 5 6 6 5 6 9 10 8 8 8 7 7 8 7 6 6 4 4 8 7 6 4 5 6 5 6 7 8 7 8 6 3 3 3 3 3 2 4 2
8 7 4 3 4 5 6 7 7 9 9 11 14 11 8 5 6 7 7 7 7 8 7 8 7 8 7 6 6 4 4 5 5 7 4 3 4 3 3 5 5 2 2
10 10 8 6 6 6 6 7 10 10 9 12 11 12 11 11 9 11 8 6 7 6 7 8 9 9 9 9 8 6 6 6 5 5 5 3 2 2 3 3 2 5 4
12 8 8 8 6 6 6 5 5 8 8 9 9 9 10 11 11 8 9 11 9 9 8 9 9 8 9 8 9 7 6 8 5 5 7 5 4 5 4 4 4 3 3
12 12 11 9 6 6 6 7 6 6 4 4 6 8 9 10 9 9 11 12 10 10 11 9 9 9 9 8 7 6 6 7 7 7 9 8 7 6 5 5 4 5 4
11 12 12 11 12 10 8 6 6 6 6 5 4 6 7 7 8 10 11 10 12 10 11 11 11 10 10 10 11 11 9 10 10 9 10 10 7 8 6 5 6 6 4
18 17 17 16 15 14 11 9 8 7 6 6 6 7 6 6 7 8 9 8 8 9 8 9 10 10 10 10 8 9 10 11 11 11 12 11 10 8 6 5 5 5 2
16 16 17 16 14 14 14 15 15 10 7 6 7 8 8 7 6 7 8 8 10 9 10 11 12 12 11 12 14 13 13 12 11 10 10 10 10 11 10 7 5 5 5
19 17 17 16 16 18 17 16 14 14 11 10 7 7 7 7 7 6 7 7 8 10 10 10 10 10 11 10 13 14 14 14 14 13 14 10 12 16 12 7 6 6 6
18 19 19 18 17 17 17 17 15 16 13 12 10 7 7 7 6 6 7 6 6 7 8 10 11 12 10 21 26 20 16 16 15 12 10 12 18 15 16 17 17 13 9
18 20 20 19 18 19 17 17 15 14 13 12 12 9 8 9 7 6 5 7 7 7 9 10 11 12 13 25 28 27 14 15 13 14 12 9 8 12 10 16 17 17 16
18 17 16 18 18 19 18 17 17 16 14 14 13 10 9 9 8 7 6 7 5 8 9 10 12 11 11 24 27 28 15 13 13 13 12 11 10 11 12 12 11 10 7
16 16 16 17 19 19 18 18 18 17 15 16 15 12 10 11 10 10 10 7 5 6 8 8 11 12 12 23 27 24 14 12 13 12 12 11 9 16 21 9 9 6 5
13 16 17 16 16 18 19 19 18 17 18 17 16 15 12 12 13 11 11 7 5 7 5 6 9 14 11 23 27 21 11 13 10 10 11 19 13 20 22 10 10 9 7
16 16 14 15 16 18 19 19 19 18 18 19 19 18 14 13 13 12 9 7 6 4 6 6 5 8 12 16 29 27 13 13 12 10 9 8 20 23 22 17 9 8 7
22 24 18 16 16 15 16 19 19 20 20 20 20 18 16 11 10 11 8 6 7 7 7 7 6 7 9 20 27 27 22 22 13 11 9 10 23 22 19 14 15 14 11
14 14 16 20 19 18 18 20 18 20 20 21 22 20 19 13 11 9 9 6 7 7 7 7 7 6 7 9 24 24 25 24 12 10 15 20 22 21 17 16 15 14 6
16 16 16 16 18 19 20 21 22 21 20 19 20 19 17 14 10 7 8 8 8 8 8 8 8 8 7 9 11 10 12 20 12 18 16 16 14 13 10 9 9 5 5
14 14 16 18 19 19 21 22 22 21 20 19 17 17 14 12 9 10 9 9 9 11 10 10 10 11 11 10 15 14 10 10 12 13 10 9 9 7 6 5 6 5 4
15 15 16 17 19 19 20 21 21 22 20 19 14 13 13 8 7 8 7 17 15 18 19 17 13 9 15 22 26 25 25 24 27 12 10 9 9 9 8 7 6 4 6
Wind_Direction
147 215 185 145 127 141 34 252 175 153 142 128 130 113 177 187 217 210 203 191 182 176 173 169 163 161 164 172 154 121 137 102 131 104 63 39 134 186 216 101 96 150 153
149 133 107 108 102 90 102 6 262 166 171 157 142 150 159 187 196 203 214 199 185 177 178 172 181 172 156 165 170 159 131 123 178 135 125 146 302 259 200 184 200 194 173
137 143 138 137 121 134 148 214 325 248 150 139 118 88 87 79 156 200 206 205 197 191 186 178 174 179 174 180 182 172 165 142 198 195 143 145 205 138 183 219 209 190 191
143 156 155 177 186 127 191 193 197 215 190 159 171 177 181 171 197 185 180 201 201 198 191 182 177 177 180 180 185 181 167 144 184 246 231 42 130 162 156 264 218 218 212
159 170 184 223 213 143 172 183 162 238 205 202 199 196 195 206 136 144 185 196 198 201 199 193 183 179 174 178 178 169 181 187 173 178 144 129 70 89 132 176 181 137 162
171 159 154 195 257 131 171 153 155 225 226 202 226 208 206 179 160 182 214 219 203 211 215 202 194 188 187 183 191 190 188 191 181 179 171 164 166 187 151 131 146 154 128
356 336 199 181 201 240 197 194 174 217 219 236 233 223 216 191 196 196 201 189 200 212 220 198 197 197 201 202 182 185 197 189 189 180 196 176 174 136 120 109 128 143 182
350 340 307 250 221 208 229 215 205 222 209 210 230 231 215 211 212 202 202 205 206 216 196 199 190 193 190 186 183 183 190 183 194 185 169 166 170 162 159 156 143 108 123
345 342 333 313 283 255 212 199 202 210 207 213 216 217 214 214 220 228 213 217 212 210 195 195 207 203 193 183 181 183 188 172 174 185 171 146 143 131 127 118 116 143 166
346 348 341 322 316 306 295 276 234 225 216 220 224 227 222 227 225 221 206 210 215 211 194 195 197 201 198 189 187 178 178 166 162 157 147 120 110 96 81 84 71 43 98
348 345 352 351 356 352 350 330 323 310 290 234 217 227 230 227 226 218 229 226 222 205 211 204 209 203 200 180 181 159 162 157 137 135 134 125 129 116 106 96 82 68 63
1 3 357 3 10 3 358 358 341 335 319 302 272 247 242 231 225 220 226 219 220 209 211 203 205 203 200 192 177 170 167 156 149 144 129 126 120 106 107 107 109 85 54
16 10 12 9 3 2 358 350 347 337 330 332 321 307 277 248 235 231 224 223 221 213 206 202 201 209 191 174 180 174 156 148 151 150 143 134 129 125 121 94 103 96 186
10 7 4 359 357 358 356 354 347 342 331 333 326 316 307 294 267 250 237 229 222 211 203 200 203 198 193 195 172 157 151 146 142 143 142 146 144 140 139 113 144 163 162
4 2 356 353 353 353 351 348 343 339 332 322 318 303 302 301 289 264 244 228 211 213 206 199 198 185 185 180 170 160 161 160 152 156 153 152 144 133 133 144 175 164 184
353 349 347 345 347 345 340 335 332 332 330 317 303 297 299 297 285 276 261 236 214 211 201 202 194 186 187 189 177 167 165 168 165 156 149 150 142 151 170 193 195 188 184
345 341 338 335 333 331 329 321 320 320 319 313 307 298 298 298 288 278 260 240 225 205 201 199 196 199 198 190 188 176 172 167 165 161 152 152 156 156 165 196 201 203 202
338 334 331 327 326 323 321 319 319 316 313 307 305 298 289 282 282 275 250 238 217 208 204 201 200 200 201 196 191 180 165 164 161 160 149 150 154 175 177 176 180 192 189
328 325 327 323 320 321 321 319 316 314 312 307 305 301 291 286 279 272 268 238 212 206 208 202 198 199 200 196 188 173 166 159 154 147 150 150 153 187 184 174 169 166 180
324 325 324 322 320 320 319 317 315 313 309 306 303 300 290 278 275 257 257 241 223 214 197 202 202 206 196 193 188 169 158 155 145 144 149 164 172 184 191 176 172 176 181
330 332 327 328 327 323 323 319 317 312 307 307 303 297 289 275 267 258 234 209 210 187 187 195 194 200 197 194 179 178 168 160 152 155 158 174 186 191 186 180 175 178 151
338 337 336 333 329 327 324 319 314 310 307 302 296 293 291 279 273 244 228 202 188 200 188 187 192 197 199 191 178 182 169 161 150 158 158 166 180 187 190 169 172 177 153
332 333 331 326 329 329 329 321 315 313 308 308 300 294 287 284 269 237 218 195 189 196 201 200 190 184 186 184 177 176 162 152 148 149 157 170 177 178 158 164 173 151 144
333 333 328 325 323 328 328 326 320 317 310 299 301 296 292 289 269 233 216 203 191 199 195 198 196 180 173 173 166 160 151 156 152 155 166 167 152 132 135 156 149 143 152
331 329 329 328 323 328 330 327 326 321 315 307 301 294 281 276 262 230 222 219 216 196 196 201 190 176 182 179 163 155 150 140 153 148 144 137 136 133 138 135 142 146 140
326 328 326 324 325 329 329 328 331 325 319 313 309 302 288 272 255 234 229 232 226 215 213 206 189 191 180 159 152 143 141 147 152 147 150 149 154 159 161 161 156 152 163